EHI
0 0 0 0 0 0 0 0 0 0 0 0 1 3 5 6 10 18 27 32 36 39 39 37 30 27 29 32 31 29 31 38 48 52 54 55 52 47 40 38 41 41 37 36
0 0 0 0 0 0 0 0 0 0 0 0 0 2 4 7 11 20 29 35 39 41 43 40 34 33 36 38 38 38 38 42 48 57 64 64 58 48 39 38 40 37 33 33
0 0 0 0 0 0 0 0 0 0 0 0 0 1 3 6 12 23 34 40 43 43 43 40 38 40 42 43 43 45 46 45 47 57 64 63 57 47 38 35 33 29 25 24
0 0 0 0 0 0 0 0 0 0 0 0 0 0 1 4 11 22 33 41 41 39 36 35 38 41 41 42 44 47 48 46 47 54 59 58 52 44 35 29 24 19 15 12
0 0 0 0 0 0 0 0 0 0 0 0 0 0 0 4 10 18 26 32 32 27 25 27 31 34 36 40 45 47 45 45 48 53 54 54 49 39 29 20 15 11 7 5
0 0 0 0 0 0 0 0 0 0 0 0 0 1 4 7 10 14 19 21 18 15 14 15 17 20 25 31 34 34 34 36 40 42 42 40 36 27 17 11 7 5 3 2
0 0 0 0 0 0 0 0 0 0 0 0 0 2 7 9 9 10 11 9 7 6 6 6 6 8 12 15 16 16 16 19 22 24 23 20 17 11 6 3 2 2 1 1
0 0 0 0 0 0 0 0 0 0 0 0 0 2 5 5 5 5 4 2 1 1 1 1 2 2 3 4 4 4 4 5 7 8 7 6 4 2 1 1 1 1 1 1
0 0 0 0 0 0 0 0 0 0 0 0 0 1 2 1 1 1 0 0 0 0 0 0 1 1 1 1 1 1 1 0 1 1 1 1 0 0 0 1 1 1 1 0
0 0 0 0 0 0 0 0 0 0 0 0 0 1 1 1 0 0 0 0 0 0 0 0 0 0 0 0 0 0 0 0 0 0 1 1 0 0 0 0 0 0 0 0
0 0 0 0 0 0 0 0 0 0 0 0 0 1 2 3 1 0 0 0 0 0 0 0 0 0 0 0 0 0 0 0 0 0 0 0 0 0 0 0 0 0 0 0
0 0 0 0 0 0 0 0 0 0 0 0 1 2 5 8 5 1 0 0 0 0 0 0 0 0 0 0 0 0 0 0 0 0 0 0 0 0 0 0 0 0 0 0
0 0 0 0 0 0 0 0 0 0 0 0 1 3 8 12 9 2 0 0 0 0 0 0 0 0 0 0 0 0 0 0 0 0 0 0 0 0 0 0 0 0 0 0
0 0 0 0 0 0 0 0 0 0 0 0 1 3 7 9 7 2 0 0 0 0 0 0 0 0 0 0 0 0 0 0 0 0 0 0 0 0 0 0 0 0 0 0
0 0 0 0 0 1 1 1 0 1 1 1 2 4 4 4 3 1 0 0 0 0 0 0 0 0 0 0 0 0 0 0 0 0 0 0 0 0 0 0 0 0 0 0
0 0 0 0 0 1 1 1 0 2 2 2 2 3 3 2 2 1 0 0 0 0 0 0 0 0 0 0 0 0 0 0 0 0 0 0 0 0 0 0 0 0 0 0
0 0 0 0 0 0 0 0 0 1 3 2 1 1 1 1 1 0 0 0 0 0 0 0 0 0 0 0 0 0 0 0 0 0 0 0 0 0 0 0 0 0 0 0
0 0 0 0 0 0 0 0 0 0 1 1 1 1 0 0 0 0 0 0 0 0 0 0 0 0 0 0 0 0 0 0 0 0 0 0 0 0 0 0 0 0 0 0
0 0 0 0 0 0 0 0 0 0 0 0 0 0 0 0 0 0 0 0 0 0 0 0 0 0 0 0 0 0 0 0 0 0 0 0 0 0 0 0 0 0 0 0
0 0 0 0 0 0 0 0 0 0 0 0 0 0 0 0 0 0 0 0 0 0 0 0 0 0 0 0 0 0 0 0 0 0 0 0 0 0 0 0 0 0 0 0
0 0 0 0 0 0 0 0 0 0 0 0 0 0 0 0 0 0 0 0 0 0 0 0 0 0 0 0 0 0 0 0 0 0 0 0 0 0 0 0 0 0 0 0
0 0 0 0 0 0 0 0 0 0 0 0 0 0 0 0 0 0 0 0 0 0 0 0 0 0 0 0 0 0 0 0 0 0 0 0 0 0 0 0 0 0 0 0
0 0 0 0 0 0 0 0 0 0 0 0 0 0 0 0 0 0 0 0 0 0 0 0 0 0 0 0 0 0 0 0 0 0 0 0 0 0 0 0 0 0 0 0
0 0 0 0 0 0 0 0 0 0 0 0 0 0 0 0 0 0 0 0 0 0 0 0 0 0 0 0 0 0 0 0 0 0 0 0 0 0 0 0 0 0 0 0
0 0 0 0 0 0 0 0 0 0 0 0 0 0 0 0 0 0 0 0 0 0 0 0 0 0 0 0 0 0 0 0 0 0 0 0 0 0 0 0 0 0 0 0
0 0 0 0 0 0 0 0 0 0 0 0 0 0 0 0 0 0 0 0 0 0 0 0 0 0 0 0 0 0 0 0 0 0 0 0 0 0 0 0 0 0 0 0
Wind_Speed
7 9 10 8 10 6 3 5 5 3 2 3 5 3 5 5 3 5 5 6 6 6 6 7 7 7 8 8 9 10 10 10 9 8 8 8 7 5 4 3 3 3 3 4
9 12 8 5 6 8 9 9 7 5 4 2 5 6 7 7 7 6 4 5 6 7 7 6 5 5 6 6 7 8 9 10 10 8 7 5 5 3 3 3 2 2 1 1
13 4 3 7 9 10 10 10 7 4 4 6 7 7 7 8 9 9 8 8 8 8 7 7 6 5 4 4 4 4 6 8 9 8 6 5 4 3 3 3 2 3 3 3
10 8 8 10 10 11 10 9 8 7 9 9 10 8 8 8 9 9 9 10 11 10 9 8 8 7 6 4 3 2 2 4 6 8 8 8 6 5 4 3 3 4 5 4
7 8 11 13 11 11 8 4 8 9 9 7 10 7 10 8 9 9 10 11 11 11 11 11 10 10 9 7 6 5 4 3 2 4 6 6 5 4 4 5 5 5 6 6
9 5 8 9 9 10 8 6 7 8 10 11 9 8 8 5 8 9 9 11 11 11 12 11 11 11 11 10 9 8 8 8 6 5 4 4 6 7 7 6 5 5 6 7
9 10 10 8 9 10 11 10 9 11 11 7 6 4 8 9 11 12 11 10 10 11 11 12 12 12 12 12 12 11 12 12 12 11 10 8 8 8 9 7 6 7 6 6
5 7 9 9 11 9 13 14 9 8 10 9 8 6 8 10 12 12 12 11 11 11 11 12 12 12 12 13 13 13 14 14 13 13 13 12 12 9 8 10 9 9 8 8
4 2 5 4 7 8 11 12 8 6 4 6 8 9 8 9 11 12 12 12 11 11 11 12 12 12 12 13 13 14 14 15 15 15 15 14 13 13 12 12 11 9 9 8
5 4 3 4 7 7 7 6 6 9 8 7 10 9 9 13 12 12 12 12 11 11 11 11 11 12 12 13 13 15 15 16 15 15 14 13 14 14 13 13 13 12 11 10
5 6 3 6 4 5 7 7 7 7 6 5 8 6 6 13 14 14 13 12 11 11 11 11 11 12 13 13 14 14 15 15 15 15 15 15 14 13 13 12 12 11 10 10
2 6 2 4 3 1 2 2 5 6 5 6 1 8 6 11 14 15 14 13 12 12 11 11 12 12 13 13 14 14 13 14 14 14 14 14 13 13 13 12 11 10 10 9
2 5 4 8 8 5 2 0 3 4 4 6 4 9 8 13 14 14 15 13 12 12 12 12 12 12 12 12 12 13 13 13 13 13 13 13 13 12 12 11 10 10 9 9
4 3 4 2 5 4 4 2 1 6 6 5 2 12 11 12 14 14 14 14 13 12 12 12 12 11 11 11 12 12 12 12 12 12 12 12 12 11 10 10 10 9 9 9
3 2 6 9 9 8 8 7 6 4 6 3 6 10 11 11 13 13 13 14 13 13 12 12 12 11 11 11 11 11 11 10 10 11 11 11 10 10 10 10 9 9 8 8
1 4 7 8 8 10 12 10 8 8 8 6 10 8 9 11 12 12 12 13 13 13 12 12 12 11 11 10 10 10 10 9 9 10 11 10 10 9 9 9 8 8 8 7
2 4 3 4 3 3 7 10 8 8 9 5 5 7 10 12 11 11 11 12 12 12 12 12 11 10 9 9 9 9 9 9 9 9 10 9 9 9 8 8 8 7 7 6
1 1 1 3 4 2 7 5 7 8 10 10 12 11 11 12 11 10 10 12 12 12 11 11 10 10 9 9 8 8 8 8 9 9 9 9 8 8 7 7 7 6 5 5
2 2 1 2 2 6 6 2 2 3 7 8 12 13 13 14 14 10 10 11 12 11 10 10 9 9 9 8 8 8 8 8 8 8 8 7 7 7 6 6 6 5 5 4
3 2 2 2 1 2 6 5 1 2 6 8 10 12 12 10 7 6 8 12 12 12 10 10 9 9 8 7 7 7 8 8 8 7 7 7 6 6 6 5 5 4 4 4
0 1 1 1 2 6 6 2 3 3 6 10 10 10 8 5 9 12 12 12 12 12 11 10 9 8 7 7 7 7 7 7 7 6 6 6 5 4 4 4 3 3 4 4
3 1 2 1 1 6 4 0 3 7 10 10 10 9 11 15 16 14 13 12 12 12 11 9 8 8 7 7 6 7 7 6 5 5 5 4 3 3 3 3 3 3 4 3
3 6 4 6 7 7 5 6 7 8 11 10 10 12 15 16 15 14 13 12 11 11 9 8 9 8 7 6 5 6 6 5 4 3 4 3 3 2 2 3 2 2 2 4
5 2 4 7 8 8 8 8 9 9 10 11 13 14 15 16 15 14 12 11 10 10 9 8 8 8 7 6 6 5 5 3 3 3 2 2 1 2 2 2 3 4 5 5
6 5 4 7 10 10 8 9 11 12 12 13 13 14 15 16 15 14 12 11 10 9 8 8 7 8 8 6 5 5 4 2 2 2 1 1 1 2 1 2 5 5 7 7
5 5 4 5 10 8 11 10 12 13 13 14 15 14 14 14 14 13 11 10 10 9 8 8 8 7 7 5 5 4 3 1 0 1 0 1 1 1 1 1 5 6 5 4
Wind_Direction
193 227 225 217 226 265 260 246 217 177 148 209 174 138 77 70 115 133 138 137 137 125 123 137 150 158 163 169 177 185 192 189 190 192 194 194 195 192 185 180 172 184 200 204
204 229 239 240 229 239 236 235 220 183 148 220 146 115 82 68 69 65 83 101 101 101 102 108 122 138 152 159 173 182 191 190 193 195 199 197 184 179 167 152 126 127 154 160
239 245 206 223 213 222 228 238 231 206 173 191 175 147 120 89 74 66 63 67 74 79 84 88 91 98 119 137 160 178 190 190 193 193 186 169 161 157 159 147 122 85 82 79
244 240 218 224 221 225 227 223 240 238 232 188 211 181 133 114 90 73 65 63 62 64 68 66 69 69 65 70 91 115 155 180 185 185 184 178 178 176 165 136 114 92 77 73
226 218 220 227 228 225 243 230 230 232 239 223 205 216 131 140 106 81 68 64 62 61 63 59 56 57 52 48 53 63 72 75 116 167 173 170 166 148 125 115 110 94 81 71
258 226 234 238 232 228 233 219 218 230 227 218 201 218 132 126 117 103 82 68 61 59 60 58 54 52 48 45 47 55 62 58 60 82 108 138 135 124 117 113 113 99 82 70
224 216 215 228 219 198 214 216 200 199 207 192 165 188 94 89 99 104 94 80 69 62 58 54 50 49 47 44 44 51 58 55 52 61 63 70 85 94 100 102 96 91 81 72
235 196 190 205 224 205 205 223 233 213 197 156 168 133 102 100 99 99 95 88 77 68 62 57 53 52 51 49 49 54 58 58 56 60 61 61 65 70 73 76 78 76 73 69
295 129 138 192 221 236 200 222 252 274 217 169 134 117 120 125 118 111 104 93 82 74 69 64 60 58 58 57 55 59 64 64 61 62 65 65 66 71 74 74 72 72 75 77
299 279 137 158 201 214 255 221 216 238 215 191 159 164 158 160 144 128 114 102 92 83 77 71 67 66 65 65 66 65 67 69 68 69 70 74 73 74 76 77 76 74 73 73
278 270 176 175 204 187 199 205 232 243 267 235 175 132 124 156 148 132 118 109 101 94 87 80 74 72 71 70 69 70 71 73 72 73 74 76 76 76 78 78 79 78 76 74
284 279 191 119 96 287 229 245 241 243 217 262 219 102 93 135 130 125 119 113 107 100 93 89 84 80 76 74 73 73 74 76 78 79 80 80 81 81 81 81 80 80 78 76
302 260 200 162 162 156 145 104 269 272 247 241 223 119 110 119 118 121 120 117 112 107 102 96 89 84 82 82 81 80 79 81 83 86 86 85 85 85 86 87 88 87 87 84
283 302 321 58 86 99 103 67 297 266 252 236 132 126 140 133 128 125 122 119 115 111 106 100 94 89 88 88 87 87 85 87 88 89 88 87 87 88 89 89 87 85 84 83
281 85 85 80 83 82 70 53 40 21 352 331 107 127 143 140 133 128 125 123 120 116 110 105 101 98 95 92 90 89 89 89 91 91 90 90 91 91 90 89 89 88 85 82
53 128 116 102 101 95 69 48 48 42 30 68 100 89 105 114 117 121 125 125 121 118 114 110 107 105 101 98 97 96 95 95 95 95 94 94 95 95 94 93 91 85 79 71
143 178 188 145 162 175 68 34 44 62 41 38 78 94 112 111 113 122 127 125 122 119 117 116 113 110 108 106 108 107 106 106 103 99 98 98 96 93 92 90 85 78 72 64
126 215 240 162 202 140 83 71 69 75 60 65 87 97 100 99 95 96 111 119 120 120 118 116 115 114 113 115 114 113 113 110 104 100 98 96 94 92 89 84 77 70 61 54
5 294 269 240 143 117 135 107 28 79 83 90 109 110 109 109 97 80 90 109 116 117 117 115 115 117 119 121 122 120 114 107 102 100 99 96 92 90 84 77 70 60 52 45
93 281 258 234 215 114 101 84 70 172 120 127 128 131 137 145 124 109 110 113 115 118 119 120 122 121 120 120 122 119 112 106 101 99 97 93 86 79 74 69 58 53 39 30
99 102 39 97 105 88 65 47 240 264 111 139 141 140 143 114 101 120 122 118 121 123 124 125 124 121 121 123 120 117 112 105 103 102 101 93 87 81 72 64 45 25 18 24
346 30 86 297 127 93 50 262 22 77 112 132 134 128 113 108 113 120 123 124 126 125 126 126 125 122 123 127 129 121 109 105 105 106 103 94 80 65 72 48 30 17 353 344
20 17 34 33 59 78 67 72 89 116 123 127 128 125 125 125 125 126 127 127 127 127 129 133 129 124 124 130 131 120 115 117 117 114 98 91 87 77 44 6 3 356 348 349
118 115 115 110 106 106 103 106 110 114 117 120 125 130 131 129 130 129 129 128 129 131 135 136 133 130 126 125 118 113 117 123 124 111 101 92 94 105 72 352 3 6 8 11
125 159 136 119 127 126 119 118 117 114 116 119 124 129 132 132 134 133 132 133 134 134 134 137 134 130 126 127 125 121 117 125 125 126 112 57 65 65 49 52 34 14 45 31
162 166 178 145 158 152 138 134 131 128 127 129 130 130 133 135 134 134 133 135 135 134 134 133 130 127 127 128 123 118 121 126 175 181 123 350 22 50 339 105 125 83 58 89